Time,TemperatureF,DewpointF,PressureIn,WindDirection,WindDirectionDegrees,WindSpeedMPH,WindSpeedGustMPH,Humidity,HourlyPrecipIn,Conditions,Clouds,dailyrainin,SoftwareType,DateUTC
2013-06-01 06:09:00,56.7,55.9,29.52,WNW,296,1.0,3.0,97,0.01,,,0.01,WeatherTracker,2013-06-01 11:09:00,
2013-06-01 06:10:00,56.7,55.9,29.52,WNW,296,1.0,3.0,97,0.01,,,0.01,WeatherTracker,2013-06-01 11:10:00,
2013-06-01 06:15:00,56.7,55.9,29.54,WNW,292,0.0,3.0,97,0.01,,,0.01,WeatherTracker,2013-06-01 11:15:00,
2013-06-01 06:20:00,56.9,56.1,29.54,WNW,285,0.0,3.0,97,0.01,,,0.01,WeatherTracker,2013-06-01 11:20:00,
2013-06-01 06:25:00,57.0,56.2,29.54,WNW,285,1.0,2.0,97,0.01,,,0.01,WeatherTracker,2013-06-01 11:25:00,
2013-06-01 06:30:00,57.0,56.2,29.54,WNW,289,1.0,2.0,97,0.01,,,0.01,WeatherTracker,2013-06-01 11:30:00,
2013-06-01 06:35:00,57.0,56.2,29.54,WNW,295,1.0,2.0,97,0.01,,,0.01,WeatherTracker,2013-06-01 11:35:00,
2013-06-01 06:40:00,57.2,56.4,29.54,WNW,296,1.0,2.0,97,0.01,,,0.01,WeatherTracker,2013-06-01 11:40:00,
2013-06-01 06:45:00,57.3,56.5,29.55,NNW,333,1.0,3.0,97,0.01,,,0.01,WeatherTracker,2013-06-01 11:45:00,
2013-06-01 06:50:00,57.3,56.5,29.55,NNW,331,2.0,3.0,97,0.01,,,0.01,WeatherTracker,2013-06-01 11:50:00,
2013-06-01 06:55:00,57.5,56.7,29.55,NNW,347,0.0,2.0,97,0.01,,,0.01,WeatherTracker,2013-06-01 11:55:00,
2013-06-01 07:00:00,57.6,56.8,29.56,NW,324,1.0,3.0,97,0.01,,,0.01,WeatherTracker,2013-06-01 12:00:00,
2013-06-01 07:05:00,57.8,57.0,29.56,NNW,338,1.0,3.0,97,0.00,,,0.01,WeatherTracker,2013-06-01 12:05:00,
2013-06-01 07:10:00,58.1,57.3,29.56,NNW,337,1.0,2.0,97,0.00,,,0.01,WeatherTracker,2013-06-01 12:10:00,
2013-06-01 07:15:00,58.1,57.5,29.56,NNW,343,1.0,3.0,98,0.00,,,0.01,WeatherTracker,2013-06-01 12:15:00,
2013-06-01 07:20:00,58.4,57.8,29.56,NW,309,1.0,3.0,98,0.00,,,0.01,WeatherTracker,2013-06-01 12:20:00,
2013-06-01 07:25:00,58.6,58.0,29.56,North,355,2.0,3.0,98,0.00,,,0.01,WeatherTracker,2013-06-01 12:25:00,
2013-06-01 07:30:00,58.7,58.1,29.57,NNW,348,2.0,3.0,98,0.00,,,0.01,WeatherTracker,2013-06-01 12:30:00,
2013-06-01 07:35:00,59.0,58.4,29.57,NNW,340,3.0,5.0,98,0.00,,,0.01,WeatherTracker,2013-06-01 12:35:00,
2013-06-01 07:40:00,59.2,58.6,29.57,NNW,343,2.0,5.0,98,0.00,,,0.01,WeatherTracker,2013-06-01 12:40:00,
2013-06-01 07:45:00,59.3,58.7,29.58,NNW,346,3.0,5.0,98,0.00,,,0.01,WeatherTracker,2013-06-01 12:45:00,
2013-06-01 07:51:00,59.5,58.9,29.58,North,-999,3.0,5.0,98,0.00,,,0.01,WeatherTracker,2013-06-01 12:51:00,
2013-06-01 07:56:00,59.5,58.9,29.58,NNW,346,3.0,5.0,98,0.00,,,0.01,WeatherTracker,2013-06-01 12:56:00,
2013-06-01 08:01:00,59.3,58.4,29.59,NW,323,1.0,6.0,97,0.00,,,0.01,WeatherTracker,2013-06-01 13:01:00,
2013-06-01 08:06:00,59.3,58.4,29.59,North,350,2.0,7.0,97,0.00,,,0.01,WeatherTracker,2013-06-01 13:06:00,
2013-06-01 08:11:00,59.3,58.7,29.59,North,354,2.0,7.0,98,0.00,,,0.01,WeatherTracker,2013-06-01 13:11:00,
2013-06-01 08:16:00,59.3,58.7,29.60,North,5,6.0,6.0,98,0.00,,,0.01,WeatherTracker,2013-06-01 13:16:00,
2013-06-01 08:21:00,59.3,58.7,29.60,NNW,348,5.0,6.0,98,0.00,,,0.01,WeatherTracker,2013-06-01 13:21:00,
2013-06-01 08:26:00,59.5,58.9,29.60,NE,34,7.0,13.0,98,0.01,,,0.02,WeatherTracker,2013-06-01 13:26:00,
2013-06-01 08:31:00,59.6,59.0,29.61,North,353,11.0,14.0,98,0.01,,,0.02,WeatherTracker,2013-06-01 13:31:00,
2013-06-01 08:36:00,59.5,58.6,29.61,North,5,5.0,22.0,97,0.02,,,0.03,WeatherTracker,2013-06-01 13:36:00,
2013-06-01 08:42:00,59.5,58.6,29.61,NNE,21,5.0,22.0,97,0.02,,,0.03,WeatherTracker,2013-06-01 13:42:00,
2013-06-01 08:47:00,59.5,58.6,29.63,NE,41,8.0,14.0,97,0.02,,,0.03,WeatherTracker,2013-06-01 13:47:00,
2013-06-01 08:52:00,59.5,58.6,29.63,NE,39,10.0,12.0,97,0.02,,,0.03,WeatherTracker,2013-06-01 13:52:00,
2013-06-01 08:57:00,59.2,58.3,29.63,North,351,3.0,14.0,97,0.02,,,0.03,WeatherTracker,2013-06-01 13:57:00,
2013-06-01 09:02:00,58.9,58.0,29.64,North,358,5.0,14.0,97,0.02,,,0.03,WeatherTracker,2013-06-01 14:02:00,
2013-06-01 09:07:00,58.6,57.8,29.64,NNW,347,7.0,12.0,97,0.03,,,0.04,WeatherTracker,2013-06-01 14:07:00,
2013-06-01 09:12:00,58.3,57.5,29.64,NW,323,7.0,14.0,97,0.03,,,0.04,WeatherTracker,2013-06-01 14:12:00,
2013-06-01 09:17:00,57.5,56.4,29.66,North,357,8.0,16.0,96,0.03,,,0.04,WeatherTracker,2013-06-01 14:17:00,
2013-06-01 09:22:00,57.2,56.4,29.66,NNE,26,8.0,16.0,97,0.03,,,0.04,WeatherTracker,2013-06-01 14:22:00,
2013-06-01 09:27:00,57.2,56.4,29.66,North,1,6.0,18.0,97,0.02,,,0.04,WeatherTracker,2013-06-01 14:27:00,
2013-06-01 09:32:00,57.3,56.5,29.67,NNE,17,10.0,18.0,97,0.02,,,0.04,WeatherTracker,2013-06-01 14:32:00,
2013-06-01 09:37:00,57.3,56.5,29.67,North,7,10.0,14.0,97,0.01,,,0.04,WeatherTracker,2013-06-01 14:37:00,
2013-06-01 09:42:00,57.2,56.4,29.67,NNE,31,6.0,20.0,97,0.01,,,0.04,WeatherTracker,2013-06-01 14:42:00,
2013-06-01 09:47:00,57.3,56.2,29.68,North,1,8.0,20.0,96,0.01,,,0.04,WeatherTracker,2013-06-01 14:47:00,
2013-06-01 09:53:00,57.6,56.5,29.68,NNE,22,10.0,17.0,96,0.01,,,0.04,WeatherTracker,2013-06-01 14:53:00,
2013-06-01 09:58:00,57.5,56.4,29.68,North,4,4.0,17.0,96,0.01,,,0.04,WeatherTracker,2013-06-01 14:58:00,
2013-06-01 10:03:00,57.2,55.8,29.68,North,357,6.0,17.0,95,0.01,,,0.04,WeatherTracker,2013-06-01 15:03:00,
2013-06-01 10:08:00,57.0,55.6,29.68,North,350,6.0,17.0,95,0.00,,,0.04,WeatherTracker,2013-06-01 15:08:00,
2013-06-01 10:13:00,57.0,55.6,29.68,North,2,8.0,16.0,95,0.00,,,0.04,WeatherTracker,2013-06-01 15:13:00,
2013-06-01 10:18:00,57.0,55.6,29.70,North,8,7.0,16.0,95,0.00,,,0.04,WeatherTracker,2013-06-01 15:18:00,
2013-06-01 10:23:00,56.9,55.5,29.70,NNE,21,5.0,13.0,95,0.00,,,0.04,WeatherTracker,2013-06-01 15:23:00,
2013-06-01 10:28:00,57.0,55.3,29.70,North,354,7.0,13.0,94,0.00,,,0.04,WeatherTracker,2013-06-01 15:28:00,
2013-06-01 10:33:00,56.7,54.7,29.71,NNW,347,11.0,15.0,93,0.00,,,0.04,WeatherTracker,2013-06-01 15:33:00,
2013-06-01 10:38:00,56.6,54.6,29.71,NNE,17,7.0,15.0,93,0.00,,,0.04,WeatherTracker,2013-06-01 15:38:00,
2013-06-01 10:43:00,56.6,54.6,29.71,NNE,12,6.0,12.0,93,0.00,,,0.04,WeatherTracker,2013-06-01 15:43:00,
2013-06-01 10:48:00,56.5,54.2,29.72,North,351,4.0,16.0,92,0.00,,,0.04,WeatherTracker,2013-06-01 15:48:00,
2013-06-01 10:53:00,56.5,54.2,29.72,North,353,4.0,16.0,92,0.00,,,0.04,WeatherTracker,2013-06-01 15:53:00,
2013-06-01 10:58:00,56.5,54.2,29.72,North,357,9.0,12.0,92,0.00,,,0.04,WeatherTracker,2013-06-01 15:58:00,
2013-06-01 11:03:00,56.5,54.2,29.73,NNW,340,5.0,13.0,92,0.00,,,0.04,WeatherTracker,2013-06-01 16:03:00,
2013-06-01 11:09:00,56.5,53.9,29.73,NNE,19,7.0,13.0,91,0.00,,,0.04,WeatherTracker,2013-06-01 16:09:00,
2013-06-01 11:14:00,56.5,53.9,29.73,NNW,327,5.0,13.0,91,0.00,,,0.04,WeatherTracker,2013-06-01 16:14:00,
2013-06-01 11:19:00,56.6,54.0,29.73,NNW,337,2.0,12.0,91,0.00,,,0.04,WeatherTracker,2013-06-01 16:19:00,
2013-06-01 11:24:00,56.6,54.0,29.73,NNE,24,7.0,12.0,91,0.00,,,0.04,WeatherTracker,2013-06-01 16:24:00,
2013-06-01 11:29:00,56.5,53.6,29.74,NE,48,6.0,12.0,90,0.00,,,0.04,WeatherTracker,2013-06-01 16:29:00,
2013-06-01 11:34:00,56.5,53.6,29.74,NNE,15,8.0,13.0,90,0.00,,,0.04,WeatherTracker,2013-06-01 16:34:00,
2013-06-01 11:39:00,56.3,53.1,29.74,North,-999,6.0,16.0,89,0.00,,,0.04,WeatherTracker,2013-06-01 16:39:00,
2013-06-01 11:44:00,56.0,52.8,29.75,North,11,13.0,16.0,89,0.00,,,0.04,WeatherTracker,2013-06-01 16:44:00,
2013-06-01 11:49:00,56.0,52.5,29.75,NNE,21,8.0,13.0,88,0.00,,,0.04,WeatherTracker,2013-06-01 16:49:00,
2013-06-01 11:54:00,56.0,52.5,29.75,NNE,22,10.0,18.0,88,0.00,,,0.04,WeatherTracker,2013-06-01 16:54:00,
2013-06-01 11:59:00,56.0,52.5,29.76,North,353,6.0,18.0,88,0.00,,,0.04,WeatherTracker,2013-06-01 16:59:00,
2013-06-01 12:04:00,56.2,52.4,29.76,NNE,24,7.0,20.0,87,0.00,,,0.04,WeatherTracker,2013-06-01 17:04:00,
2013-06-01 12:09:00,56.3,52.5,29.76,North,1,6.0,20.0,87,0.00,,,0.04,WeatherTracker,2013-06-01 17:09:00,
2013-06-01 12:14:00,56.5,52.4,29.77,North,4,5.0,18.0,86,0.00,,,0.04,WeatherTracker,2013-06-01 17:14:00,
2013-06-01 12:19:00,56.5,52.0,29.77,NNW,340,5.0,12.0,85,0.00,,,0.04,WeatherTracker,2013-06-01 17:19:00,
2013-06-01 12:24:00,56.5,51.7,29.77,North,-999,6.0,16.0,84,0.00,,,0.04,WeatherTracker,2013-06-01 17:24:00,
2013-06-01 12:30:00,56.3,51.5,29.77,NNE,17,7.0,16.0,84,0.00,,,0.04,WeatherTracker,2013-06-01 17:30:00,
2013-06-01 12:35:00,56.0,51.2,29.77,North,-999,4.0,16.0,84,0.00,,,0.04,WeatherTracker,2013-06-01 17:35:00,
2013-06-01 12:40:00,56.0,50.9,29.77,North,358,5.0,16.0,83,0.00,,,0.04,WeatherTracker,2013-06-01 17:40:00,
2013-06-01 12:45:00,56.2,51.1,29.79,NNW,348,8.0,11.0,83,0.00,,,0.04,WeatherTracker,2013-06-01 17:45:00,
2013-06-01 12:50:00,55.9,51.1,29.79,NNW,338,3.0,11.0,84,0.00,,,0.04,WeatherTracker,2013-06-01 17:50:00,
2013-06-01 12:55:00,55.6,50.8,29.79,North,354,9.0,13.0,84,0.00,,,0.04,WeatherTracker,2013-06-01 17:55:00,
2013-06-01 13:00:00,55.6,50.8,29.80,North,357,6.0,13.0,84,0.00,,,0.04,WeatherTracker,2013-06-01 18:00:00,
2013-06-01 13:05:00,55.3,50.5,29.80,North,1,2.0,10.0,84,0.00,,,0.04,WeatherTracker,2013-06-01 18:05:00,
2013-06-01 13:10:00,55.1,50.4,29.80,WNW,289,7.0,8.0,84,0.00,,,0.04,WeatherTracker,2013-06-01 18:10:00,
2013-06-01 13:15:00,55.1,50.4,29.80,North,1,7.0,16.0,84,0.00,,,0.04,WeatherTracker,2013-06-01 18:15:00,
2013-06-01 13:20:00,55.0,50.3,29.80,North,350,5.0,16.0,84,0.00,,,0.04,WeatherTracker,2013-06-01 18:20:00,
2013-06-01 13:25:00,54.8,50.1,29.80,WNW,302,10.0,13.0,84,0.00,,,0.04,WeatherTracker,2013-06-01 18:25:00,
2013-06-01 13:31:00,54.8,50.1,29.81,North,8,2.0,13.0,84,0.00,,,0.04,WeatherTracker,2013-06-01 18:31:00,
2013-06-01 13:36:00,54.8,50.1,29.81,North,-999,7.0,12.0,84,0.00,,,0.04,WeatherTracker,2013-06-01 18:36:00,
2013-06-01 13:41:00,54.8,50.1,29.81,NNE,26,5.0,12.0,84,0.00,,,0.04,WeatherTracker,2013-06-01 18:41:00,
2013-06-01 13:46:00,54.7,50.0,29.82,North,357,2.0,12.0,84,0.00,,,0.04,WeatherTracker,2013-06-01 18:46:00,
2013-06-01 13:51:00,54.7,50.3,29.82,North,7,2.0,12.0,85,0.00,,,0.04,WeatherTracker,2013-06-01 18:51:00,
2013-06-01 13:56:00,54.4,50.0,29.82,NNW,346,7.0,12.0,85,0.00,,,0.04,WeatherTracker,2013-06-01 18:56:00,
2013-06-01 14:01:00,54.2,50.1,29.83,North,4,6.0,11.0,86,0.00,,,0.04,WeatherTracker,2013-06-01 19:01:00,
2013-06-01 14:06:00,54.4,50.3,29.83,NW,321,5.0,11.0,86,0.00,,,0.04,WeatherTracker,2013-06-01 19:06:00,
2013-06-01 14:11:00,54.2,50.1,29.83,WNW,303,5.0,13.0,86,0.00,,,0.04,WeatherTracker,2013-06-01 19:11:00,
2013-06-01 14:16:00,54.4,50.3,29.83,NW,314,6.0,13.0,86,0.00,,,0.04,WeatherTracker,2013-06-01 19:16:00,
2013-06-01 14:21:00,54.5,50.4,29.83,North,357,6.0,12.0,86,0.00,,,0.04,WeatherTracker,2013-06-01 19:21:00,
2013-06-01 14:27:00,54.4,50.0,29.83,NW,307,8.0,12.0,85,0.00,,,0.04,WeatherTracker,2013-06-01 19:27:00,
2013-06-01 14:32:00,54.2,49.8,29.84,NNW,341,7.0,13.0,85,0.00,,,0.04,WeatherTracker,2013-06-01 19:32:00,
2013-06-01 14:37:00,54.1,49.4,29.84,North,352,10.0,14.0,84,0.00,,,0.04,WeatherTracker,2013-06-01 19:37:00,
2013-06-01 14:42:00,53.9,49.2,29.84,NNW,347,7.0,14.0,84,0.00,,,0.04,WeatherTracker,2013-06-01 19:42:00,
2013-06-01 14:47:00,54.1,49.4,29.84,NNW,336,7.0,12.0,84,0.00,,,0.04,WeatherTracker,2013-06-01 19:47:00,
2013-06-01 14:52:00,53.9,49.2,29.84,North,354,8.0,11.0,84,0.00,,,0.04,WeatherTracker,2013-06-01 19:52:00,
2013-06-01 14:57:00,53.9,49.2,29.84,North,350,8.0,11.0,84,0.00,,,0.04,WeatherTracker,2013-06-01 19:57:00,
2013-06-01 15:02:00,54.1,49.4,29.85,North,355,11.0,11.0,84,0.00,,,0.04,WeatherTracker,2013-06-01 20:02:00,
2013-06-01 15:07:00,53.8,49.1,29.85,West,280,5.0,13.0,84,0.00,,,0.04,WeatherTracker,2013-06-01 20:07:00,
2013-06-01 15:12:00,53.8,49.1,29.85,NNW,338,8.0,13.0,84,0.00,,,0.04,WeatherTracker,2013-06-01 20:12:00,
2013-06-01 15:17:00,53.9,49.2,29.85,NNW,336,3.0,16.0,84,0.00,,,0.04,WeatherTracker,2013-06-01 20:17:00,
2013-06-01 15:22:00,54.1,49.4,29.85,NNW,330,5.0,16.0,84,0.00,,,0.04,WeatherTracker,2013-06-01 20:22:00,
2013-06-01 15:27:00,54.2,49.5,29.85,NW,317,6.0,11.0,84,0.00,,,0.04,WeatherTracker,2013-06-01 20:27:00,
2013-06-01 15:32:00,54.1,49.4,29.85,North,354,7.0,10.0,84,0.00,,,0.04,WeatherTracker,2013-06-01 20:32:00,
2013-06-01 15:38:00,53.9,49.2,29.85,NNE,12,5.0,12.0,84,0.00,,,0.04,WeatherTracker,2013-06-01 20:38:00,
2013-06-01 15:43:00,54.2,49.5,29.85,NNE,16,11.0,16.0,84,0.00,,,0.04,WeatherTracker,2013-06-01 20:43:00,
2013-06-01 15:48:00,54.4,49.3,29.86,North,9,10.0,17.0,83,0.00,,,0.04,WeatherTracker,2013-06-01 20:48:00,
2013-06-01 15:53:00,54.4,49.0,29.86,NNE,26,6.0,17.0,82,0.00,,,0.04,WeatherTracker,2013-06-01 20:53:00,
2013-06-01 15:58:00,54.2,49.1,29.86,NNW,331,2.0,16.0,83,0.00,,,0.04,WeatherTracker,2013-06-01 20:58:00,
2013-06-01 16:03:00,54.2,49.1,29.86,NW,321,7.0,16.0,83,0.00,,,0.04,WeatherTracker,2013-06-01 21:03:00,
2013-06-01 16:08:00,54.5,49.4,29.86,North,351,4.0,11.0,83,0.00,,,0.04,WeatherTracker,2013-06-01 21:08:00,
2013-06-01 16:13:00,54.7,49.0,29.86,North,352,5.0,11.0,81,0.00,,,0.04,WeatherTracker,2013-06-01 21:13:00,
2013-06-01 16:18:00,54.7,48.7,29.87,NNW,344,6.0,12.0,80,0.00,,,0.04,WeatherTracker,2013-06-01 21:18:00,
2013-06-01 16:23:00,54.5,48.8,29.87,North,357,7.0,12.0,81,0.00,,,0.04,WeatherTracker,2013-06-01 21:23:00,
2013-06-01 16:28:00,54.1,48.7,29.87,NNW,336,7.0,12.0,82,0.00,,,0.04,WeatherTracker,2013-06-01 21:28:00,
2013-06-01 16:33:00,53.9,48.2,29.88,NNW,341,7.0,16.0,81,0.00,,,0.04,WeatherTracker,2013-06-01 21:33:00,
2013-06-01 16:38:00,54.1,48.4,29.88,NNE,19,11.0,19.0,81,0.00,,,0.04,WeatherTracker,2013-06-01 21:38:00,
2013-06-01 16:43:00,53.9,47.9,29.88,North,355,8.0,19.0,80,0.00,,,0.04,WeatherTracker,2013-06-01 21:43:00,
2013-06-01 16:48:00,53.9,48.2,29.88,NNW,344,9.0,19.0,81,0.00,,,0.04,WeatherTracker,2013-06-01 21:48:00,
2013-06-01 16:53:00,53.9,48.2,29.88,North,350,5.0,13.0,81,0.00,,,0.04,WeatherTracker,2013-06-01 21:53:00,
2013-06-01 16:58:00,53.9,48.2,29.89,North,358,6.0,13.0,81,0.00,,,0.04,WeatherTracker,2013-06-01 21:58:00,
2013-06-01 17:03:00,53.9,48.2,29.89,North,5,9.0,13.0,81,0.00,,,0.04,WeatherTracker,2013-06-01 22:03:00,
2013-06-01 17:09:00,53.9,47.9,29.89,NNW,347,9.0,12.0,80,0.00,,,0.04,WeatherTracker,2013-06-01 22:09:00,
2013-06-01 17:14:00,53.9,47.5,29.90,North,9,7.0,17.0,79,0.00,,,0.04,WeatherTracker,2013-06-01 22:14:00,
2013-06-01 17:19:00,53.9,47.2,29.90,NNW,341,4.0,17.0,78,0.00,,,0.04,WeatherTracker,2013-06-01 22:19:00,
2013-06-01 17:24:00,54.1,47.7,29.90,WNW,285,3.0,18.0,79,0.00,,,0.04,WeatherTracker,2013-06-01 22:24:00,
2013-06-01 17:29:00,54.1,47.4,29.90,NNW,337,5.0,18.0,78,0.00,,,0.04,WeatherTracker,2013-06-01 22:29:00,
2013-06-01 17:34:00,53.9,47.2,29.90,North,352,7.0,13.0,78,0.00,,,0.04,WeatherTracker,2013-06-01 22:34:00,
2013-06-01 17:39:00,53.8,47.1,29.90,NNE,32,5.0,13.0,78,0.00,,,0.04,WeatherTracker,2013-06-01 22:39:00,
2013-06-01 17:44:00,53.8,47.1,29.90,NNE,31,8.0,16.0,78,0.00,,,0.04,WeatherTracker,2013-06-01 22:44:00,
2013-06-01 17:49:00,53.9,47.2,29.90,North,354,10.0,16.0,78,0.00,,,0.04,WeatherTracker,2013-06-01 22:49:00,
2013-06-01 17:54:00,54.1,47.1,29.90,NNW,348,5.0,16.0,77,0.00,,,0.04,WeatherTracker,2013-06-01 22:54:00,
2013-06-01 17:59:00,54.2,46.8,29.91,North,352,10.0,17.0,76,0.00,,,0.04,WeatherTracker,2013-06-01 22:59:00,
2013-06-01 18:04:00,54.2,46.8,29.91,NNE,16,14.0,19.0,76,0.00,,,0.04,WeatherTracker,2013-06-01 23:04:00,
2013-06-01 18:09:00,54.2,46.4,29.91,North,355,7.0,19.0,75,0.00,,,0.04,WeatherTracker,2013-06-01 23:09:00,
2013-06-01 18:14:00,54.2,46.4,29.91,NNE,16,9.0,19.0,75,0.00,,,0.04,WeatherTracker,2013-06-01 23:14:00,
2013-06-01 18:19:00,54.5,46.4,29.91,North,358,12.0,19.0,74,0.00,,,0.04,WeatherTracker,2013-06-01 23:19:00,
2013-06-01 18:24:00,54.5,46.0,29.91,North,357,11.0,19.0,73,0.00,,,0.04,WeatherTracker,2013-06-01 23:24:00,
2013-06-01 18:29:00,54.5,46.4,29.91,North,350,7.0,19.0,74,0.00,,,0.04,WeatherTracker,2013-06-01 23:29:00,
2013-06-01 18:34:00,54.4,46.3,29.91,NNW,343,2.0,19.0,74,0.00,,,0.04,WeatherTracker,2013-06-01 23:34:00,
2013-06-01 18:39:00,54.4,46.6,29.91,North,351,4.0,14.0,75,0.00,,,0.04,WeatherTracker,2013-06-01 23:39:00,
2013-06-01 18:45:00,54.2,47.1,29.91,North,354,7.0,16.0,77,0.00,,,0.04,WeatherTracker,2013-06-01 23:45:00,
2013-06-01 18:50:00,54.2,47.5,29.91,NNW,337,5.0,13.0,78,0.00,,,0.04,WeatherTracker,2013-06-01 23:50:00,
2013-06-01 18:55:00,54.1,47.7,29.91,North,1,15.0,17.0,79,0.00,,,0.04,WeatherTracker,2013-06-01 23:55:00,
2013-06-01 19:00:00,53.9,47.9,29.91,North,352,4.0,20.0,80,0.00,,,0.04,WeatherTracker,2013-06-02 00:00:00,
2013-06-01 19:05:00,53.8,47.1,29.91,North,358,16.0,20.0,78,0.00,,,0.04,WeatherTracker,2013-06-02 00:05:00,
2013-06-01 19:10:00,53.9,47.2,29.91,North,9,6.0,19.0,78,0.00,,,0.04,WeatherTracker,2013-06-02 00:10:00,
2013-06-01 19:15:00,53.9,47.2,29.92,NNW,340,6.0,19.0,78,0.00,,,0.04,WeatherTracker,2013-06-02 00:15:00,
2013-06-01 19:20:00,53.8,47.1,29.92,NNW,343,6.0,18.0,78,0.00,,,0.04,WeatherTracker,2013-06-02 00:20:00,
2013-06-01 19:25:00,53.6,47.2,29.92,NNW,336,10.0,15.0,79,0.00,,,0.04,WeatherTracker,2013-06-02 00:25:00,
2013-06-01 19:30:00,53.5,47.8,29.93,North,352,3.0,12.0,81,0.00,,,0.04,WeatherTracker,2013-06-02 00:30:00,
2013-06-01 19:35:00,53.3,48.3,29.93,North,351,7.0,12.0,83,0.00,,,0.04,WeatherTracker,2013-06-02 00:35:00,
2013-06-01 19:40:00,53.1,48.1,29.93,NNE,32,8.0,14.0,83,0.00,,,0.04,WeatherTracker,2013-06-02 00:40:00,
2013-06-01 19:45:00,52.9,47.9,29.94,NNW,341,9.0,17.0,83,0.00,,,0.04,WeatherTracker,2013-06-02 00:45:00,
2013-06-01 19:50:00,52.9,47.6,29.94,North,7,5.0,18.0,82,0.00,,,0.04,WeatherTracker,2013-06-02 00:50:00,
2013-06-01 19:55:00,53.1,47.4,29.94,NNE,29,5.0,18.0,81,0.00,,,0.04,WeatherTracker,2013-06-02 00:55:00,
2013-06-01 20:00:00,53.2,47.8,29.94,NNE,32,13.0,14.0,82,0.00,,,0.04,WeatherTracker,2013-06-02 01:00:00,
2013-06-01 20:05:00,52.9,48.2,29.94,North,-999,7.0,18.0,84,0.00,,,0.04,WeatherTracker,2013-06-02 01:05:00,
2013-06-01 20:10:00,52.5,48.1,29.94,North,9,17.0,18.0,85,0.00,,,0.04,WeatherTracker,2013-06-02 01:10:00,
2013-06-01 20:15:00,52.3,48.2,29.95,North,11,6.0,17.0,86,0.00,,,0.04,WeatherTracker,2013-06-02 01:15:00,
2013-06-01 20:21:00,52.2,48.1,29.95,NNE,29,7.0,17.0,86,0.00,,,0.04,WeatherTracker,2013-06-02 01:21:00,
2013-06-01 20:26:00,52.0,47.9,29.95,North,8,5.0,16.0,86,0.00,,,0.04,WeatherTracker,2013-06-02 01:26:00,
2013-06-01 20:31:00,51.9,47.2,29.95,North,352,12.0,21.0,84,0.00,,,0.04,WeatherTracker,2013-06-02 01:31:00,
2013-06-01 20:36:00,51.9,46.9,29.95,NNE,25,8.0,21.0,83,0.00,,,0.04,WeatherTracker,2013-06-02 01:36:00,
2013-06-01 20:41:00,51.9,46.6,29.95,NNE,19,17.0,17.0,82,0.00,,,0.04,WeatherTracker,2013-06-02 01:41:00,
2013-06-01 20:46:00,52.0,46.4,29.95,North,8,12.0,21.0,81,0.00,,,0.04,WeatherTracker,2013-06-02 01:46:00,
2013-06-01 20:51:00,52.2,46.5,29.95,North,-999,6.0,21.0,81,0.00,,,0.04,WeatherTracker,2013-06-02 01:51:00,
2013-06-01 20:56:00,52.2,46.2,29.95,NNE,32,10.0,17.0,80,0.00,,,0.04,WeatherTracker,2013-06-02 01:56:00,
2013-06-01 21:01:00,52.3,46.3,29.96,North,-999,6.0,16.0,80,0.00,,,0.04,WeatherTracker,2013-06-02 02:01:00,
2013-06-01 21:06:00,52.3,46.3,29.96,NE,36,11.0,16.0,80,0.00,,,0.04,WeatherTracker,2013-06-02 02:06:00,
2013-06-01 21:11:00,52.3,46.6,29.96,NNW,347,5.0,17.0,81,0.00,,,0.04,WeatherTracker,2013-06-02 02:11:00,
2013-06-01 21:16:00,52.2,46.5,29.97,North,5,7.0,17.0,81,0.00,,,0.04,WeatherTracker,2013-06-02 02:16:00,
2013-06-01 21:21:00,52.0,46.0,29.97,NNE,25,12.0,17.0,80,0.00,,,0.04,WeatherTracker,2013-06-02 02:21:00,
2013-06-01 21:26:00,52.0,46.0,29.97,NNW,348,6.0,19.0,80,0.00,,,0.04,WeatherTracker,2013-06-02 02:26:00,
2013-06-01 21:31:00,51.9,45.6,29.98,North,-999,8.0,19.0,79,0.00,,,0.04,WeatherTracker,2013-06-02 02:31:00,
2013-06-01 21:36:00,52.0,45.4,29.98,NNW,344,5.0,18.0,78,0.00,,,0.04,WeatherTracker,2013-06-02 02:36:00,
2013-06-01 21:42:00,52.0,45.0,29.98,NNW,337,7.0,16.0,77,0.00,,,0.04,WeatherTracker,2013-06-02 02:42:00,
2013-06-01 21:46:00,52.2,45.2,30.00,North,358,8.0,16.0,77,0.00,,,0.04,WeatherTracker,2013-06-02 02:46:00,
2013-06-01 21:52:00,52.2,44.9,30.00,NNW,337,5.0,16.0,76,0.00,,,0.04,WeatherTracker,2013-06-02 02:52:00,
2013-06-01 21:57:00,52.2,44.9,30.00,North,352,5.0,16.0,76,0.00,,,0.04,WeatherTracker,2013-06-02 02:57:00,
2013-06-01 22:02:00,52.2,44.9,30.01,NNE,21,8.0,16.0,76,0.00,,,0.04,WeatherTracker,2013-06-02 03:02:00,
2013-06-01 22:07:00,52.2,44.5,30.01,NW,323,6.0,16.0,75,0.00,,,0.04,WeatherTracker,2013-06-02 03:07:00,
2013-06-01 22:12:00,52.2,44.5,30.01,NE,36,11.0,17.0,75,0.00,,,0.04,WeatherTracker,2013-06-02 03:12:00,
2013-06-01 22:17:00,52.2,44.2,30.01,NNE,12,14.0,17.0,74,0.00,,,0.04,WeatherTracker,2013-06-02 03:17:00,
2013-06-01 22:22:00,52.2,44.2,30.01,NNW,337,12.0,18.0,74,0.00,,,0.04,WeatherTracker,2013-06-02 03:22:00,
2013-06-01 22:27:00,52.2,44.2,30.01,North,9,6.0,18.0,74,0.00,,,0.04,WeatherTracker,2013-06-02 03:27:00,
2013-06-01 22:32:00,52.2,44.2,30.02,NE,39,7.0,14.0,74,0.00,,,0.04,WeatherTracker,2013-06-02 03:32:00,
2013-06-01 22:37:00,52.2,44.5,30.02,NNE,16,6.0,13.0,75,0.00,,,0.04,WeatherTracker,2013-06-02 03:37:00,
2013-06-01 22:42:00,52.2,44.5,30.02,NNE,25,11.0,14.0,75,0.00,,,0.04,WeatherTracker,2013-06-02 03:42:00,
2013-06-01 22:47:00,52.0,44.0,30.02,North,354,10.0,14.0,74,0.00,,,0.04,WeatherTracker,2013-06-02 03:47:00,
2013-06-01 22:52:00,52.0,44.0,30.02,North,2,7.0,18.0,74,0.00,,,0.04,WeatherTracker,2013-06-02 03:52:00,
2013-06-01 22:58:00,52.0,43.6,30.02,NNE,21,16.0,18.0,73,0.00,,,0.04,WeatherTracker,2013-06-02 03:58:00,
2013-06-01 23:01:00,51.9,43.5,30.02,NE,36,9.0,26.0,73,0.00,,,0.04,WeatherTracker,2013-06-02 04:01:00,
2013-06-01 23:03:00,51.9,43.2,30.02,NNW,348,14.0,26.0,72,0.00,,,0.04,WeatherTracker,2013-06-02 04:03:00,
2013-06-01 23:08:00,51.7,43.0,30.02,NE,56,18.0,26.0,72,0.00,,,0.04,WeatherTracker,2013-06-02 04:08:00,
2013-06-01 23:13:00,51.7,42.6,30.02,North,354,10.0,18.0,71,0.00,,,0.04,WeatherTracker,2013-06-02 04:13:00,
2013-06-01 23:18:00,51.7,42.6,30.02,North,355,12.0,18.0,71,0.00,,,0.04,WeatherTracker,2013-06-02 04:18:00,
2013-06-01 23:23:00,51.7,43.0,30.02,NE,38,13.0,18.0,72,0.00,,,0.04,WeatherTracker,2013-06-02 04:23:00,
2013-06-01 23:28:00,51.7,42.6,30.02,North,11,7.0,22.0,71,0.00,,,0.04,WeatherTracker,2013-06-02 04:28:00,
2013-06-01 23:34:00,51.7,42.6,30.02,North,8,5.0,22.0,71,0.00,,,0.04,WeatherTracker,2013-06-02 04:34:00,
2013-06-01 23:39:00,51.7,43.0,30.02,North,7,7.0,19.0,72,0.00,,,0.04,WeatherTracker,2013-06-02 04:39:00,
2013-06-01 23:44:00,51.7,43.0,30.02,NNE,29,11.0,12.0,72,0.00,,,0.04,WeatherTracker,2013-06-02 04:44:00,
2013-06-01 23:49:00,51.7,43.0,30.02,NNE,31,7.0,13.0,72,0.00,,,0.04,WeatherTracker,2013-06-02 04:49:00,
2013-06-01 23:54:00,51.7,43.0,30.02,NNE,19,5.0,17.0,72,0.00,,,0.04,WeatherTracker,2013-06-02 04:54:00,
2013-06-01 23:59:00,51.7,43.3,30.02,NNE,14,5.0,17.0,73,0.00,,,0.04,WeatherTracker,2013-06-02 04:59:00,